Year,Month,Day,Hour,Minute,Value (Times are PST for temperature in C)
2012,08,10,00,00,16.10
2012,08,10,00,01,16.10
2012,08,10,00,02,16.20
2012,08,10,00,03,16.20
2012,08,10,00,04,16.20
2012,08,10,00,05,16.20
2012,08,10,00,06,16.20
2012,08,10,00,07,16.20
2012,08,10,00,08,16.20
2012,08,10,00,09,16.20
2012,08,10,00,10,16.20
2012,08,10,00,11,16.10
2012,08,10,00,12,16.10
2012,08,10,00,13,16.10
2012,08,10,00,14,16.10
2012,08,10,00,15,16.10
2012,08,10,00,16,16.10
2012,08,10,00,17,16.10
2012,08,10,00,18,16.10
2012,08,10,00,19,16.00
2012,08,10,00,20,16.00
2012,08,10,00,21,16.00
2012,08,10,00,22,16.00
2012,08,10,00,23,16.00
2012,08,10,00,24,16.00
2012,08,10,00,25,16.00
2012,08,10,00,26,16.00
2012,08,10,00,27,16.00
2012,08,10,00,28,15.90
2012,08,10,00,29,15.90
2012,08,10,00,30,15.90
2012,08,10,00,31,15.90
2012,08,10,00,32,15.90
2012,08,10,00,33,15.90
2012,08,10,00,34,15.90
2012,08,10,00,35,15.90
2012,08,10,00,36,15.90
2012,08,10,00,37,15.90
2012,08,10,00,38,15.90
2012,08,10,00,39,15.90
2012,08,10,00,40,15.90
2012,08,10,00,41,15.90
2012,08,10,00,42,15.90
2012,08,10,00,43,15.90
2012,08,10,00,44,15.90
2012,08,10,00,45,15.90
2012,08,10,00,46,15.90
2012,08,10,00,47,15.90
2012,08,10,00,48,15.90
2012,08,10,00,49,15.90
2012,08,10,00,50,15.90
2012,08,10,00,51,15.80
2012,08,10,00,52,15.80
2012,08,10,00,53,15.80
2012,08,10,00,54,15.80
2012,08,10,00,55,15.80
2012,08,10,00,56,15.80
2012,08,10,00,57,15.80
2012,08,10,00,58,15.80
2012,08,10,00,59,15.80
2012,08,10,01,00,15.70
2012,08,10,01,01,15.70
2012,08,10,01,02,15.70
2012,08,10,01,03,15.70
2012,08,10,01,04,15.70
2012,08,10,01,05,15.60
2012,08,10,01,06,15.60
2012,08,10,01,07,15.60
2012,08,10,01,08,15.60
2012,08,10,01,09,15.60
2012,08,10,01,10,15.60
2012,08,10,01,11,15.60
2012,08,10,01,12,15.50
2012,08,10,01,13,15.60
2012,08,10,01,14,15.50
2012,08,10,01,15,15.50
2012,08,10,01,16,15.50
2012,08,10,01,17,15.50
2012,08,10,01,18,15.50
2012,08,10,01,19,15.50
2012,08,10,01,20,15.50
2012,08,10,01,21,15.50
2012,08,10,01,22,15.50
2012,08,10,01,23,15.50
2012,08,10,01,24,15.60
2012,08,10,01,25,15.60
2012,08,10,01,26,15.60
2012,08,10,01,27,15.60
2012,08,10,01,28,15.60
2012,08,10,01,29,15.60
2012,08,10,01,30,15.60
2012,08,10,01,31,15.60
2012,08,10,01,32,15.60
2012,08,10,01,33,15.60
2012,08,10,01,34,15.50
2012,08,10,01,35,15.50
2012,08,10,01,36,15.50
2012,08,10,01,37,15.50
2012,08,10,01,38,15.50
2012,08,10,01,39,15.50
2012,08,10,01,40,15.50
2012,08,10,01,41,15.50
2012,08,10,01,42,15.60
2012,08,10,01,43,15.60
2012,08,10,01,44,15.60
2012,08,10,01,45,15.50
2012,08,10,01,46,15.50
2012,08,10,01,47,15.50
2012,08,10,01,48,15.50
2012,08,10,01,49,15.40
2012,08,10,01,50,15.40
2012,08,10,01,51,15.40
2012,08,10,01,52,15.40
2012,08,10,01,53,15.40
2012,08,10,01,54,15.40
2012,08,10,01,55,15.40
2012,08,10,01,56,15.40
2012,08,10,01,57,15.40
2012,08,10,01,58,15.30
2012,08,10,01,59,15.30
2012,08,10,02,00,15.30
2012,08,10,02,01,15.30
2012,08,10,02,02,15.30
2012,08,10,02,03,15.30
2012,08,10,02,04,15.30
2012,08,10,02,05,15.30
2012,08,10,02,06,15.40
2012,08,10,02,07,15.40
2012,08,10,02,08,15.40
2012,08,10,02,09,15.40
2012,08,10,02,10,15.40
2012,08,10,02,11,15.40
2012,08,10,02,12,15.40
2012,08,10,02,13,15.40
2012,08,10,02,14,15.40
2012,08,10,02,15,15.40
2012,08,10,02,16,15.40
2012,08,10,02,17,15.50
2012,08,10,02,18,15.50
2012,08,10,02,19,15.50
2012,08,10,02,20,15.50
2012,08,10,02,21,15.50
2012,08,10,02,22,15.50
2012,08,10,02,23,15.50
2012,08,10,02,24,15.50
2012,08,10,02,25,15.50
2012,08,10,02,26,15.50
2012,08,10,02,27,15.40
2012,08,10,02,28,15.40
2012,08,10,02,29,15.40
2012,08,10,02,30,15.40
2012,08,10,02,31,15.40
2012,08,10,02,32,15.50
2012,08,10,02,33,15.50
2012,08,10,02,34,15.50
2012,08,10,02,35,15.50
2012,08,10,02,36,15.50
2012,08,10,02,37,15.50
2012,08,10,02,38,15.50
2012,08,10,02,39,15.60
2012,08,10,02,40,15.60
2012,08,10,02,41,15.60
2012,08,10,02,42,15.60
2012,08,10,02,43,15.60
2012,08,10,02,44,15.70
2012,08,10,02,45,15.70
2012,08,10,02,46,15.70
2012,08,10,02,47,15.70
2012,08,10,02,48,15.70
2012,08,10,02,49,15.70
2012,08,10,02,50,15.70
2012,08,10,02,51,15.70
2012,08,10,02,52,15.70
2012,08,10,02,53,15.70
2012,08,10,02,54,15.70
2012,08,10,02,55,15.70
2012,08,10,02,56,15.70
2012,08,10,02,57,15.70
2012,08,10,02,58,15.70
2012,08,10,02,59,15.60
2012,08,10,03,00,15.60
2012,08,10,03,01,15.60
2012,08,10,03,02,15.50
2012,08,10,03,03,15.40
2012,08,10,03,04,15.40
2012,08,10,03,05,15.40
2012,08,10,03,06,15.40
2012,08,10,03,07,15.40
2012,08,10,03,08,15.40
2012,08,10,03,09,15.40
2012,08,10,03,10,15.40
2012,08,10,03,11,15.40
2012,08,10,03,12,15.30
2012,08,10,03,13,15.30
2012,08,10,03,14,15.30
2012,08,10,03,15,15.30
2012,08,10,03,16,15.30
2012,08,10,03,17,15.30
2012,08,10,03,18,15.30
2012,08,10,03,19,15.20
2012,08,10,03,20,15.20
2012,08,10,03,21,15.30
2012,08,10,03,22,15.30
2012,08,10,03,23,15.30
2012,08,10,03,24,15.20
2012,08,10,03,25,15.30
2012,08,10,03,26,15.30
2012,08,10,03,27,15.30
2012,08,10,03,28,15.30
2012,08,10,03,29,15.30
2012,08,10,03,30,15.30
2012,08,10,03,31,15.30
2012,08,10,03,32,15.30
2012,08,10,03,33,15.30
2012,08,10,03,34,15.30
2012,08,10,03,35,15.30
2012,08,10,03,36,15.30
2012,08,10,03,37,15.30
2012,08,10,03,38,15.30
2012,08,10,03,39,15.30
2012,08,10,03,40,15.30
2012,08,10,03,41,15.30
2012,08,10,03,42,15.20
2012,08,10,03,43,15.20
2012,08,10,03,44,15.20
2012,08,10,03,45,15.20
2012,08,10,03,46,15.20
2012,08,10,03,47,15.20
2012,08,10,03,48,15.20
2012,08,10,03,49,15.20
2012,08,10,03,50,15.20
2012,08,10,03,51,15.20
2012,08,10,03,52,15.20
2012,08,10,03,53,15.20
2012,08,10,03,54,15.10
2012,08,10,03,55,15.10
2012,08,10,03,56,15.10
2012,08,10,03,57,15.10
2012,08,10,03,58,15.10
2012,08,10,03,59,15.10
2012,08,10,04,00,15.10
2012,08,10,04,01,15.10
2012,08,10,04,02,15.10
2012,08,10,04,03,15.10
2012,08,10,04,04,15.10
2012,08,10,04,05,15.20
2012,08,10,04,06,15.20
2012,08,10,04,07,15.20
2012,08,10,04,08,15.20
2012,08,10,04,09,15.20
2012,08,10,04,10,15.20
2012,08,10,04,11,15.20
2012,08,10,04,12,15.20
2012,08,10,04,13,15.20
2012,08,10,04,14,15.20
2012,08,10,04,15,15.20
2012,08,10,04,16,15.20
2012,08,10,04,17,15.20
2012,08,10,04,18,15.20
2012,08,10,04,19,15.10
2012,08,10,04,20,15.10
2012,08,10,04,21,15.10
2012,08,10,04,22,15.10
2012,08,10,04,23,15.00
2012,08,10,04,24,15.00
2012,08,10,04,25,15.00
2012,08,10,04,26,15.00
2012,08,10,04,27,15.00
2012,08,10,04,28,15.00
2012,08,10,04,29,15.10
2012,08,10,04,30,15.10
2012,08,10,04,31,15.10
2012,08,10,04,32,15.10
2012,08,10,04,33,15.00
2012,08,10,04,34,15.00
2012,08,10,04,35,15.00
2012,08,10,04,36,15.00
2012,08,10,04,37,15.00
2012,08,10,04,38,15.10
2012,08,10,04,39,15.10
2012,08,10,04,40,15.10
2012,08,10,04,41,15.10
2012,08,10,04,42,15.10
2012,08,10,04,43,15.10
2012,08,10,04,44,15.10
2012,08,10,04,45,15.10
2012,08,10,04,46,15.10
2012,08,10,04,47,15.10
2012,08,10,04,48,15.10
2012,08,10,04,49,15.10
2012,08,10,04,50,15.10
2012,08,10,04,51,15.10
2012,08,10,04,52,15.10
2012,08,10,04,53,15.10
2012,08,10,04,54,15.10
2012,08,10,04,55,15.00
2012,08,10,04,56,15.00
2012,08,10,04,57,14.90
2012,08,10,04,58,14.90
2012,08,10,04,59,14.90
2012,08,10,05,00,14.90
2012,08,10,05,01,14.90
2012,08,10,05,02,14.90
2012,08,10,05,03,14.90
2012,08,10,05,04,14.90
2012,08,10,05,05,14.90
2012,08,10,05,06,14.90
2012,08,10,05,07,14.90
2012,08,10,05,08,14.90
2012,08,10,05,09,15.00
2012,08,10,05,10,15.00
2012,08,10,05,11,15.00
2012,08,10,05,12,15.10
2012,08,10,05,13,15.10
2012,08,10,05,14,15.10
2012,08,10,05,15,15.10
2012,08,10,05,16,15.10
2012,08,10,05,17,15.10
2012,08,10,05,18,15.10
2012,08,10,05,19,15.10
2012,08,10,05,20,15.10
2012,08,10,05,21,15.10
2012,08,10,05,22,15.10
2012,08,10,05,23,15.10
2012,08,10,05,24,15.10
2012,08,10,05,25,15.10
2012,08,10,05,26,15.00
2012,08,10,05,27,15.00
2012,08,10,05,28,15.00
2012,08,10,05,29,14.90
2012,08,10,05,30,14.90
2012,08,10,05,31,14.90
2012,08,10,05,32,14.90
2012,08,10,05,33,14.90
2012,08,10,05,34,14.80
2012,08,10,05,35,14.80
2012,08,10,05,36,14.80
2012,08,10,05,37,14.80
2012,08,10,05,38,14.90
2012,08,10,05,39,14.90
2012,08,10,05,40,14.90
2012,08,10,05,41,14.90
2012,08,10,05,42,14.90
2012,08,10,05,43,14.90
2012,08,10,05,44,14.90
2012,08,10,05,45,14.80
2012,08,10,05,46,14.80
2012,08,10,05,47,14.80
2012,08,10,05,48,14.80
2012,08,10,05,49,14.90
2012,08,10,05,50,14.90
2012,08,10,05,51,14.90
2012,08,10,05,52,14.90
2012,08,10,05,53,14.90
2012,08,10,05,54,14.90
2012,08,10,05,55,14.90
2012,08,10,05,56,14.90
2012,08,10,05,57,14.90
2012,08,10,05,58,14.90
2012,08,10,05,59,14.90
2012,08,10,06,00,14.90
2012,08,10,06,01,14.90
2012,08,10,06,02,14.90
2012,08,10,06,03,14.90
2012,08,10,06,04,14.90
2012,08,10,06,05,14.90
2012,08,10,06,06,14.90
2012,08,10,06,07,14.90
2012,08,10,06,08,14.90
2012,08,10,06,09,14.90
2012,08,10,06,10,14.90
2012,08,10,06,11,14.90
2012,08,10,06,12,14.90
2012,08,10,06,13,14.90
2012,08,10,06,14,14.90
2012,08,10,06,15,14.90
2012,08,10,06,16,14.90
2012,08,10,06,17,14.90
2012,08,10,06,18,14.90
2012,08,10,06,19,14.90
2012,08,10,06,20,14.90
2012,08,10,06,21,14.80
2012,08,10,06,22,14.80
2012,08,10,06,23,14.80
2012,08,10,06,24,14.80
2012,08,10,06,25,14.80
2012,08,10,06,26,14.80
2012,08,10,06,27,14.80
2012,08,10,06,28,14.80
2012,08,10,06,29,14.80
2012,08,10,06,30,14.90
2012,08,10,06,31,14.90
2012,08,10,06,32,14.90
2012,08,10,06,33,14.90
2012,08,10,06,34,14.90
2012,08,10,06,35,14.90
2012,08,10,06,36,14.90
2012,08,10,06,37,14.90
2012,08,10,06,38,14.90
2012,08,10,06,39,14.90
2012,08,10,06,40,14.90
2012,08,10,06,41,14.90
2012,08,10,06,42,14.90
2012,08,10,06,43,14.80
2012,08,10,06,44,14.80
2012,08,10,06,45,14.80
2012,08,10,06,46,14.80
2012,08,10,06,47,14.80
2012,08,10,06,48,14.80
2012,08,10,06,49,14.80
2012,08,10,06,50,14.80
2012,08,10,06,51,14.80
2012,08,10,06,52,14.90
2012,08,10,06,53,14.90
2012,08,10,06,54,14.90
2012,08,10,06,55,14.90
2012,08,10,06,56,14.90
2012,08,10,06,57,14.90
2012,08,10,06,58,14.90
2012,08,10,06,59,14.90
2012,08,10,07,00,14.90
2012,08,10,07,01,14.90
2012,08,10,07,02,14.90
2012,08,10,07,03,14.90
2012,08,10,07,04,14.80
2012,08,10,07,05,14.80
2012,08,10,07,06,14.80
2012,08,10,07,07,14.80
2012,08,10,07,08,14.80
2012,08,10,07,09,14.80
2012,08,10,07,10,14.80
2012,08,10,07,11,14.80
2012,08,10,07,12,14.80
2012,08,10,07,13,14.80
2012,08,10,07,14,14.80
2012,08,10,07,15,14.70
2012,08,10,07,16,14.70
2012,08,10,07,17,14.70
2012,08,10,07,18,14.80
2012,08,10,07,19,14.80
2012,08,10,07,20,14.80
2012,08,10,07,21,14.80
2012,08,10,07,22,14.80
2012,08,10,07,23,14.80
2012,08,10,07,24,14.80
2012,08,10,07,25,14.80
2012,08,10,07,26,14.80
2012,08,10,07,27,14.80
2012,08,10,07,28,14.80
2012,08,10,07,29,14.90
2012,08,10,07,30,14.90
2012,08,10,07,31,14.90
2012,08,10,07,32,14.80
2012,08,10,07,33,14.80
2012,08,10,07,34,14.80
2012,08,10,07,35,14.80
2012,08,10,07,36,14.80
2012,08,10,07,37,14.80
2012,08,10,07,38,14.70
2012,08,10,07,39,14.70
2012,08,10,07,40,14.70
2012,08,10,07,41,14.70
2012,08,10,07,42,14.70
2012,08,10,07,43,14.80
2012,08,10,07,44,14.70
2012,08,10,07,45,14.70
2012,08,10,07,46,14.70
2012,08,10,07,47,14.70
2012,08,10,07,48,14.70
2012,08,10,07,49,14.80
2012,08,10,07,50,14.80
2012,08,10,07,51,14.80
2012,08,10,07,52,14.80
2012,08,10,07,53,14.80
2012,08,10,07,54,14.80
2012,08,10,07,55,14.80
2012,08,10,07,56,14.80
2012,08,10,07,57,14.80
2012,08,10,07,58,14.80
2012,08,10,07,59,14.80
2012,08,10,08,00,14.80
2012,08,10,08,01,14.80
2012,08,10,08,02,14.80
2012,08,10,08,03,14.80
2012,08,10,08,04,14.80
2012,08,10,08,05,14.80
2012,08,10,08,06,14.80
2012,08,10,08,07,14.80
2012,08,10,08,08,14.80
2012,08,10,08,09,14.80
2012,08,10,08,10,14.70
2012,08,10,08,11,14.70
2012,08,10,08,12,14.70
2012,08,10,08,13,14.70
2012,08,10,08,14,14.70
2012,08,10,08,15,14.70
2012,08,10,08,16,14.70
2012,08,10,08,17,14.70
2012,08,10,08,18,14.80
2012,08,10,08,19,14.80
2012,08,10,08,20,14.80
2012,08,10,08,21,14.80
2012,08,10,08,22,14.80
2012,08,10,08,23,14.90
2012,08,10,08,24,14.90
2012,08,10,08,25,14.90
2012,08,10,08,26,14.90
2012,08,10,08,27,14.80
2012,08,10,08,28,14.80
2012,08,10,08,29,14.80
2012,08,10,08,30,14.80
2012,08,10,08,31,14.80
2012,08,10,08,32,14.80
2012,08,10,08,33,14.90
2012,08,10,08,34,15.00
2012,08,10,08,35,15.10
2012,08,10,08,36,15.10
2012,08,10,08,37,15.10
2012,08,10,08,38,15.10
2012,08,10,08,39,15.20
2012,08,10,08,40,15.20
2012,08,10,08,41,15.20
2012,08,10,08,42,15.20
2012,08,10,08,43,15.30
2012,08,10,08,44,15.30
2012,08,10,08,45,15.40
2012,08,10,08,46,15.40
2012,08,10,08,47,15.40
2012,08,10,08,48,15.50
2012,08,10,08,49,15.50
2012,08,10,08,50,15.50
2012,08,10,08,51,15.50
2012,08,10,08,52,15.40
2012,08,10,08,53,15.40
2012,08,10,08,54,15.40
2012,08,10,08,55,15.40
2012,08,10,08,56,15.40
2012,08,10,08,57,15.30
2012,08,10,08,58,15.40
2012,08,10,08,59,15.40
2012,08,10,09,00,15.50
2012,08,10,09,01,15.60
2012,08,10,09,02,15.60
2012,08,10,09,03,15.60
2012,08,10,09,04,15.60
2012,08,10,09,05,15.70
2012,08,10,09,06,15.70
2012,08,10,09,07,15.70
2012,08,10,09,08,15.70
2012,08,10,09,09,15.70
2012,08,10,09,10,15.70
2012,08,10,09,11,15.60
2012,08,10,09,12,15.60
2012,08,10,09,13,15.60
2012,08,10,09,14,15.60
2012,08,10,09,15,15.60
2012,08,10,09,16,15.50
2012,08,10,09,17,15.50
2012,08,10,09,18,15.40
2012,08,10,09,19,15.40
2012,08,10,09,20,15.40
2012,08,10,09,21,15.40
2012,08,10,09,22,15.30
2012,08,10,09,23,15.30
2012,08,10,09,24,15.30
2012,08,10,09,25,15.30
2012,08,10,09,26,15.30
2012,08,10,09,27,15.30
2012,08,10,09,28,15.30
2012,08,10,09,29,15.30
2012,08,10,09,30,15.30
2012,08,10,09,31,15.30
2012,08,10,09,32,15.30
2012,08,10,09,33,15.50
2012,08,10,09,34,15.60
2012,08,10,09,35,15.60
2012,08,10,09,36,15.60
2012,08,10,09,37,15.70
2012,08,10,09,38,15.70
2012,08,10,09,39,15.70
2012,08,10,09,40,15.70
2012,08,10,09,41,15.80
2012,08,10,09,42,15.80
2012,08,10,09,43,15.80
2012,08,10,09,44,15.90
2012,08,10,09,45,15.90
2012,08,10,09,46,15.90
2012,08,10,09,47,15.90
2012,08,10,09,48,15.90
2012,08,10,09,49,15.90
2012,08,10,09,50,16.00
2012,08,10,09,51,16.00
2012,08,10,09,52,16.00
2012,08,10,09,53,16.10
2012,08,10,09,54,16.10
2012,08,10,09,55,16.10
2012,08,10,09,56,16.20
2012,08,10,09,57,16.20
2012,08,10,09,58,16.20
2012,08,10,09,59,16.30
2012,08,10,10,00,16.30
2012,08,10,10,01,16.30
2012,08,10,10,02,16.40
2012,08,10,10,03,16.50
2012,08,10,10,04,16.50
2012,08,10,10,05,16.60
2012,08,10,10,06,16.60
2012,08,10,10,07,16.70
2012,08,10,10,08,16.80
2012,08,10,10,09,16.80
2012,08,10,10,10,16.90
2012,08,10,10,11,17.00
2012,08,10,10,12,17.10
2012,08,10,10,13,17.10
2012,08,10,10,14,17.20
2012,08,10,10,15,17.20
2012,08,10,10,16,17.20
2012,08,10,10,17,17.30
2012,08,10,10,18,17.40
2012,08,10,10,19,17.40
2012,08,10,10,20,17.50
2012,08,10,10,21,17.50
2012,08,10,10,22,17.60
2012,08,10,10,23,17.70
2012,08,10,10,24,17.80
2012,08,10,10,25,17.80
2012,08,10,10,26,17.90
2012,08,10,10,27,18.00
2012,08,10,10,28,18.00
2012,08,10,10,29,18.10
2012,08,10,10,30,18.10
2012,08,10,10,31,18.20
2012,08,10,10,32,18.20
2012,08,10,10,33,18.30
2012,08,10,10,34,18.30
2012,08,10,10,35,18.30
2012,08,10,10,36,18.40
2012,08,10,10,37,18.40
2012,08,10,10,38,18.40
2012,08,10,10,39,18.50
2012,08,10,10,40,18.50
2012,08,10,10,41,18.60
2012,08,10,10,42,18.60
2012,08,10,10,43,18.60
2012,08,10,10,44,18.70
2012,08,10,10,45,18.70
2012,08,10,10,46,18.70
2012,08,10,10,47,18.80
2012,08,10,10,48,18.80
2012,08,10,10,49,18.80
2012,08,10,10,50,18.90
2012,08,10,10,51,19.00
2012,08,10,10,52,19.00
2012,08,10,10,53,19.10
2012,08,10,10,54,19.10
2012,08,10,10,55,19.10
2012,08,10,10,56,19.20
2012,08,10,10,57,19.20
2012,08,10,10,58,19.30
2012,08,10,10,59,19.40
2012,08,10,11,00,19.40
2012,08,10,11,01,19.50
2012,08,10,11,02,19.60
2012,08,10,11,03,19.60
2012,08,10,11,04,19.70
2012,08,10,11,05,19.70
2012,08,10,11,06,19.70
2012,08,10,11,07,19.70
2012,08,10,11,08,19.70
2012,08,10,11,09,19.80
2012,08,10,11,10,19.80
2012,08,10,11,11,19.80
2012,08,10,11,12,19.90
2012,08,10,11,13,20.00
2012,08,10,11,14,20.10
2012,08,10,11,15,20.10
2012,08,10,11,16,20.10
2012,08,10,11,17,20.20
2012,08,10,11,18,20.30
2012,08,10,11,19,20.30
2012,08,10,11,20,20.40
2012,08,10,11,21,20.40
2012,08,10,11,22,20.40
2012,08,10,11,23,20.50
2012,08,10,11,24,20.50
2012,08,10,11,25,20.60
2012,08,10,11,26,20.60
2012,08,10,11,27,20.60
2012,08,10,11,28,20.70
2012,08,10,11,29,20.80
2012,08,10,11,30,20.90
2012,08,10,11,31,20.90
2012,08,10,11,32,21.00
2012,08,10,11,33,21.10
2012,08,10,11,34,21.20
2012,08,10,11,35,21.20
2012,08,10,11,36,21.20
2012,08,10,11,37,21.20
2012,08,10,11,38,21.20
2012,08,10,11,39,21.30
2012,08,10,11,40,21.30
2012,08,10,11,41,21.30
2012,08,10,11,42,21.40
2012,08,10,11,43,21.40
2012,08,10,11,44,21.50
2012,08,10,11,45,21.60
2012,08,10,11,46,21.60
2012,08,10,11,47,21.70
2012,08,10,11,48,21.70
2012,08,10,11,49,21.80
2012,08,10,11,50,21.80
2012,08,10,11,51,21.80
2012,08,10,11,52,21.80
2012,08,10,11,53,21.80
2012,08,10,11,54,21.90
2012,08,10,11,55,21.90
2012,08,10,11,56,22.00
2012,08,10,11,57,22.00
2012,08,10,11,58,22.10
2012,08,10,11,59,22.20
2012,08,10,12,00,22.30
2012,08,10,12,01,22.40
2012,08,10,12,02,22.40
2012,08,10,12,03,22.40
2012,08,10,12,04,22.50
2012,08,10,12,05,22.50
2012,08,10,12,06,22.50
2012,08,10,12,07,22.60
2012,08,10,12,08,22.60
2012,08,10,12,09,22.70
2012,08,10,12,10,22.60
2012,08,10,12,11,22.60
2012,08,10,12,12,22.60
2012,08,10,12,13,22.60
2012,08,10,12,14,22.60
2012,08,10,12,15,22.70
2012,08,10,12,16,22.80
2012,08,10,12,17,22.80
2012,08,10,12,18,22.90
2012,08,10,12,19,23.00
2012,08,10,12,20,23.10
2012,08,10,12,21,23.20
2012,08,10,12,22,23.20
2012,08,10,12,23,23.20
2012,08,10,12,24,23.30
2012,08,10,12,25,23.30
2012,08,10,12,26,23.40
2012,08,10,12,27,23.50
2012,08,10,12,28,23.60
2012,08,10,12,29,23.70
2012,08,10,12,30,23.80
2012,08,10,12,31,23.90
2012,08,10,12,32,24.00
2012,08,10,12,33,24.00
2012,08,10,12,34,24.10
2012,08,10,12,35,24.10
2012,08,10,12,36,24.10
2012,08,10,12,37,24.10
2012,08,10,12,38,24.20
2012,08,10,12,39,24.30
2012,08,10,12,40,24.30
2012,08,10,12,41,24.30
2012,08,10,12,42,24.30
2012,08,10,12,43,24.30
2012,08,10,12,44,24.40
2012,08,10,12,45,24.40
2012,08,10,12,46,24.50
2012,08,10,12,47,24.60
2012,08,10,12,48,24.70
2012,08,10,12,49,24.60
2012,08,10,12,50,24.60
2012,08,10,12,51,24.60
2012,08,10,12,52,24.70
2012,08,10,12,53,24.70
2012,08,10,12,54,24.80
2012,08,10,12,55,24.80
2012,08,10,12,56,24.80
2012,08,10,12,57,24.80
2012,08,10,12,58,24.90
2012,08,10,12,59,24.90
2012,08,10,13,00,24.90
2012,08,10,13,01,25.00
2012,08,10,13,02,25.00
2012,08,10,13,03,25.00
2012,08,10,13,04,25.00
2012,08,10,13,05,25.00
2012,08,10,13,06,25.00
2012,08,10,13,07,25.10
2012,08,10,13,08,25.10
2012,08,10,13,09,25.20
2012,08,10,13,10,25.20
2012,08,10,13,11,25.20
2012,08,10,13,12,25.20
2012,08,10,13,13,25.20
2012,08,10,13,14,25.30
2012,08,10,13,15,25.30
2012,08,10,13,16,25.30
2012,08,10,13,17,25.20
2012,08,10,13,18,25.10
2012,08,10,13,19,25.00
2012,08,10,13,20,25.00
2012,08,10,13,21,24.90
2012,08,10,13,22,24.90
2012,08,10,13,23,24.80
2012,08,10,13,24,24.70
2012,08,10,13,25,24.60
2012,08,10,13,26,24.60
2012,08,10,13,27,24.50
2012,08,10,13,28,24.40
2012,08,10,13,29,24.40
2012,08,10,13,30,24.30
2012,08,10,13,31,24.30
2012,08,10,13,32,24.20
2012,08,10,13,33,24.20
2012,08,10,13,34,24.20
2012,08,10,13,35,24.30
2012,08,10,13,36,24.40
2012,08,10,13,37,24.50
2012,08,10,13,38,24.60
2012,08,10,13,39,24.70
2012,08,10,13,40,24.80
2012,08,10,13,41,24.90
2012,08,10,13,42,25.00
2012,08,10,13,43,25.20
2012,08,10,13,44,25.30
2012,08,10,13,45,25.40
2012,08,10,13,46,25.40
2012,08,10,13,47,25.40
2012,08,10,13,48,25.40
2012,08,10,13,49,25.40
2012,08,10,13,50,25.40
2012,08,10,13,51,25.40
2012,08,10,13,52,25.30
2012,08,10,13,53,25.30
2012,08,10,13,54,25.30
2012,08,10,13,55,25.20
2012,08,10,13,56,25.20
2012,08,10,13,57,25.20
2012,08,10,13,58,25.10
2012,08,10,13,59,25.00
2012,08,10,14,00,25.00
2012,08,10,14,01,25.00
2012,08,10,14,02,25.00
2012,08,10,14,03,24.90
2012,08,10,14,04,24.90
2012,08,10,14,05,24.80
2012,08,10,14,06,24.80
2012,08,10,14,07,24.70
2012,08,10,14,08,24.60
2012,08,10,14,09,24.50
2012,08,10,14,10,24.40
2012,08,10,14,11,24.40
2012,08,10,14,12,24.30
2012,08,10,14,13,24.40
2012,08,10,14,14,24.40
2012,08,10,14,15,24.40
2012,08,10,14,16,24.40
2012,08,10,14,17,24.40
2012,08,10,14,18,24.40
2012,08,10,14,19,24.40
2012,08,10,14,20,24.40
2012,08,10,14,21,24.40
2012,08,10,14,22,24.40
2012,08,10,14,23,24.40
2012,08,10,14,24,24.30
2012,08,10,14,25,24.30
2012,08,10,14,26,24.30
2012,08,10,14,27,24.30
2012,08,10,14,28,24.30
2012,08,10,14,29,24.30
2012,08,10,14,30,24.20
2012,08,10,14,31,24.10
2012,08,10,14,32,24.00
2012,08,10,14,33,24.00
2012,08,10,14,34,23.90
2012,08,10,14,35,23.80
2012,08,10,14,36,23.80
2012,08,10,14,37,23.70
2012,08,10,14,38,23.60
2012,08,10,14,39,23.60
2012,08,10,14,40,23.50
2012,08,10,14,41,23.40
2012,08,10,14,42,23.40
2012,08,10,14,43,23.30
2012,08,10,14,44,23.30
2012,08,10,14,45,23.20
2012,08,10,14,46,23.20
2012,08,10,14,47,23.20
2012,08,10,14,48,23.30
2012,08,10,14,49,23.30
2012,08,10,14,50,23.30
2012,08,10,14,51,23.30
2012,08,10,14,52,23.30
2012,08,10,14,53,23.30
2012,08,10,14,54,23.20
2012,08,10,14,55,23.20
2012,08,10,14,56,23.10
2012,08,10,14,57,23.10
2012,08,10,14,58,23.10
2012,08,10,14,59,23.10
2012,08,10,15,00,23.10
2012,08,10,15,01,23.10
2012,08,10,15,02,23.10
2012,08,10,15,03,23.10
2012,08,10,15,04,23.20
2012,08,10,15,05,23.20
2012,08,10,15,06,23.20
2012,08,10,15,07,23.20
2012,08,10,15,08,23.20
2012,08,10,15,09,23.30
2012,08,10,15,10,23.30
2012,08,10,15,11,23.30
2012,08,10,15,12,23.20
2012,08,10,15,13,23.20
2012,08,10,15,14,23.20
2012,08,10,15,15,23.00
2012,08,10,15,16,22.90
2012,08,10,15,17,22.70
2012,08,10,15,18,22.60
2012,08,10,15,19,22.50
2012,08,10,15,20,22.30
2012,08,10,15,21,22.20
2012,08,10,15,22,22.20
2012,08,10,15,23,22.10
2012,08,10,15,24,22.20
2012,08,10,15,25,22.20
2012,08,10,15,26,22.20
2012,08,10,15,27,22.20
2012,08,10,15,28,22.30
2012,08,10,15,29,22.40
2012,08,10,15,30,22.40
2012,08,10,15,31,22.30
2012,08,10,15,32,22.30
2012,08,10,15,33,22.30
2012,08,10,15,34,22.20
2012,08,10,15,35,22.20
2012,08,10,15,36,22.30
2012,08,10,15,37,22.30
2012,08,10,15,38,22.30
2012,08,10,15,39,22.30
2012,08,10,15,40,22.30
2012,08,10,15,41,22.30
2012,08,10,15,42,22.30
2012,08,10,15,43,22.30
2012,08,10,15,44,22.40
2012,08,10,15,45,22.40
2012,08,10,15,46,22.50
2012,08,10,15,47,22.50
2012,08,10,15,48,22.50
2012,08,10,15,49,22.50
2012,08,10,15,50,22.60
2012,08,10,15,51,22.60
2012,08,10,15,52,22.60
2012,08,10,15,53,22.60
2012,08,10,15,54,22.60
2012,08,10,15,55,22.60
2012,08,10,15,56,22.60
2012,08,10,15,57,22.70
2012,08,10,15,58,22.80
2012,08,10,15,59,23.00
2012,08,10,16,00,23.10
2012,08,10,16,01,23.20
2012,08,10,16,02,23.30
2012,08,10,16,03,23.40
2012,08,10,16,04,23.40
2012,08,10,16,05,23.50
2012,08,10,16,06,23.50
2012,08,10,16,07,23.60
2012,08,10,16,08,23.60
2012,08,10,16,09,23.70
2012,08,10,16,10,23.70
2012,08,10,16,11,23.80
2012,08,10,16,12,23.80
2012,08,10,16,13,23.80
2012,08,10,16,14,23.80
2012,08,10,16,15,23.80
2012,08,10,16,16,23.80
2012,08,10,16,17,23.80
2012,08,10,16,18,23.90
2012,08,10,16,19,23.90
2012,08,10,16,20,23.90
2012,08,10,16,21,23.90
2012,08,10,16,22,23.90
2012,08,10,16,23,23.90
2012,08,10,16,24,23.90
2012,08,10,16,25,23.90
2012,08,10,16,26,23.90
2012,08,10,16,27,23.80
2012,08,10,16,28,23.80
2012,08,10,16,29,23.70
2012,08,10,16,30,23.70
2012,08,10,16,31,23.70
2012,08,10,16,32,23.70
2012,08,10,16,33,23.70
2012,08,10,16,34,23.70
2012,08,10,16,35,23.70
2012,08,10,16,36,23.70
2012,08,10,16,37,23.80
2012,08,10,16,38,23.80
2012,08,10,16,39,23.80
2012,08,10,16,40,23.80
2012,08,10,16,41,23.80
2012,08,10,16,42,23.70
2012,08,10,16,43,23.70
2012,08,10,16,44,23.60
2012,08,10,16,45,23.50
2012,08,10,16,46,23.40
2012,08,10,16,47,23.30
2012,08,10,16,48,23.20
2012,08,10,16,49,23.10
2012,08,10,16,50,23.10
2012,08,10,16,51,23.00
2012,08,10,16,52,22.90
2012,08,10,16,53,22.90
2012,08,10,16,54,22.90
2012,08,10,16,55,22.90
2012,08,10,16,56,22.90
2012,08,10,16,57,23.00
2012,08,10,16,58,23.00
2012,08,10,16,59,23.10
2012,08,10,17,00,23.10
2012,08,10,17,01,23.20
2012,08,10,17,02,23.30
2012,08,10,17,03,23.30
2012,08,10,17,04,23.30
2012,08,10,17,05,23.30
2012,08,10,17,06,23.30
2012,08,10,17,07,23.30
2012,08,10,17,08,23.30
2012,08,10,17,09,23.30
2012,08,10,17,10,23.30
2012,08,10,17,11,23.30
2012,08,10,17,12,23.30
2012,08,10,17,13,23.30
2012,08,10,17,14,23.30
2012,08,10,17,15,23.30
2012,08,10,17,16,23.30
2012,08,10,17,17,23.30
2012,08,10,17,18,23.30
2012,08,10,17,19,23.30